Theta_e
304 304 304 304 303 304 304 304 304 304 303 301 298 298 297 297 297 297 297 298 298 298 298 298 299 299 300 307 305 305 304 305 315 315 314 315 316 315 316 316 316 317 316 316 316 316 317
303 303 304 303 303 303 303 304 303 304 303 301 298 297 297 297 297 297 297 297 297 298 298 297 298 298 306 307 304 304 305 305 310 316 317 314 316 316 316 317 317 317 317 317 317 317 316
304 303 302 302 302 303 303 302 303 303 303 303 302 300 298 298 298 297 297 297 297 297 297 298 297 298 305 304 303 303 304 305 309 312 313 314 314 314 315 317 316 317 318 318 318 318 318
303 304 303 303 303 302 302 302 302 302 303 303 301 301 301 302 302 302 300 298 298 297 298 298 299 304 306 301 302 303 301 302 303 304 305 311 312 313 314 316 316 317 318 320 320 318 317
301 301 303 303 303 302 301 302 302 301 302 301 302 301 303 304 304 303 302 301 300 298 298 300 303 306 305 303 302 306 302 304 304 303 302 307 312 312 314 316 317 317 319 320 320 318 318
303 302 301 301 302 301 301 301 301 301 301 301 301 300 302 303 303 303 303 302 300 300 304 305 306 306 305 304 308 312 314 314 314 313 308 307 313 315 316 316 317 317 320 320 320 319 317
300 300 299 299 300 301 301 300 300 301 301 301 301 300 302 302 302 303 303 304 305 306 306 307 307 306 305 308 304 310 314 315 312 312 309 309 315 315 315 317 317 318 319 320 320 318 318
298 299 300 299 299 300 301 300 300 300 300 300 300 301 302 301 302 302 303 303 304 304 305 305 305 305 305 307 306 307 313 314 314 314 312 313 314 315 315 316 318 319 318 319 319 318 318
299 298 297 297 297 299 299 298 299 299 299 299 300 301 301 301 301 303 303 303 305 305 306 307 307 306 307 305 305 306 311 313 314 315 313 314 315 314 316 317 317 318 319 319 319 318 319
298 297 299 298 299 300 299 298 298 298 298 298 299 300 300 302 302 304 305 303 304 304 309 308 307 308 307 306 307 305 305 311 314 314 314 314 313 315 315 317 316 317 317 317 318 318 319
296 296 298 298 297 298 298 298 297 297 298 298 298 299 301 302 303 304 305 304 304 305 307 305 308 307 307 307 306 311 306 305 309 314 314 315 315 314 316 316 316 316 316 316 317 319 320
295 295 296 296 296 297 299 298 297 297 297 298 297 299 300 301 302 303 304 304 304 310 306 305 310 311 309 307 308 311 309 307 307 306 308 313 313 314 315 315 316 317 317 318 318 319 321
295 296 296 295 296 297 298 298 297 297 297 297 296 298 299 301 304 303 304 304 309 308 306 307 310 309 308 311 312 312 310 310 311 308 306 306 310 312 314 315 315 316 317 321 322 323 322
294 295 296 297 297 297 298 297 297 296 296 297 296 297 300 300 301 303 303 306 308 306 307 307 308 308 308 310 313 312 313 313 311 311 310 308 307 308 309 313 314 317 318 321 322 323 323
294 294 294 295 297 297 297 296 296 296 297 297 296 297 299 300 301 303 303 308 304 306 307 308 308 308 309 310 312 314 312 313 313 312 312 311 310 311 311 312 312 316 319 319 320 319 323
294 294 294 295 294 295 295 296 296 296 296 297 297 298 300 300 301 302 304 305 305 306 307 307 307 309 309 309 309 312 314 313 313 314 315 313 313 312 312 313 314 314 316 318 319 320 321
294 295 295 295 295 294 296 297 296 295 296 295 297 299 300 300 301 303 305 305 304 303 304 307 308 308 309 309 309 309 311 312 312 314 315 315 314 315 315 314 314 315 317 317 318 319 321
294 295 295 295 294 294 294 294 294 294 295 296 298 301 300 301 302 301 305 304 304 304 303 304 306 307 308 308 308 308 308 311 311 312 314 316 318 315 314 315 315 315 316 317 320 318 321
294 293 293 294 294 294 295 295 295 295 295 297 299 299 300 301 304 303 304 306 305 304 305 305 304 305 306 307 307 307 308 310 309 310 311 312 317 318 315 315 315 315 315 316 317 319 321
294 294 294 294 294 295 295 295 295 295 295 296 298 301 300 301 301 304 304 304 307 304 304 304 306 306 307 307 307 307 307 307 309 308 307 309 311 315 319 318 318 318 317 316 317 321 319
295 295 296 296 297 297 297 297 297 297 296 296 298 299 300 303 302 302 305 304 305 306 303 304 304 306 306 307 308 308 308 308 307 307 310 311 311 310 311 313 314 315 317 318 318 318 321
297 297 297 298 298 299 299 298 299 298 298 298 298 300 300 301 301 303 303 304 305 304 305 305 305 305 306 307 307 307 307 308 307 308 308 309 313 313 314 313 314 316 316 317 318 318 318
298 298 298 298 296 296 298 299 299 299 298 299 298 299 301 301 303 304 305 306 306 305 305 304 305 305 305 306 305 306 306 305 306 307 308 309 310 311 313 314 315 316 317 319 318 318 318
298 298 298 297 296 296 296 296 298 299 299 298 299 299 300 302 303 304 303 304 304 304 305 305 304 305 305 304 304 305 305 305 306 307 307 308 310 312 312 314 317 316 316 319 319 318 317
297 296 296 296 296 296 296 296 296 297 298 299 299 300 300 303 303 304 304 305 304 305 305 305 305 304 304 304 307 307 308 307 307 307 308 308 309 311 311 316 315 315 313 317 321 319 318
295 295 296 296 296 296 296 296 296 296 296 298 299 299 301 304 304 302 304 304 305 306 306 305 304 304 303 305 308 308 308 308 309 310 309 308 309 311 312 316 314 314 313 315 316 322 320
295 295 296 297 297 298 298 298 298 298 297 296 298 298 299 300 301 301 304 305 305 305 306 305 305 304 303 306 308 308 307 307 308 310 310 310 309 311 311 315 315 316 316 316 322 322 318
298 298 298 298 297 299 299 299 298 298 297 297 296 298 298 300 302 302 302 302 303 305 306 305 305 303 303 308 308 308 307 307 307 307 314 311 310 312 311 315 315 314 315 317 317 318 318
300 300 300 300 300 300 299 299 300 299 299 297 297 297 298 298 301 301 303 303 304 304 304 305 305 305 305 307 308 308 309 310 308 309 308 308 314 315 315 313 312 310 313 314 313 315 315
Wind_Speed
13 16 15 15 13 14 15 12 12 13 14 16 16 16 17 18 19 18 20 19 19 20 19 19 20 22 18 7 18 19 20 12 6 14 12 15 15 17 16 13 17 19 18 17 18 19 18
16 16 15 16 14 16 14 14 15 14 15 17 17 16 17 19 20 20 21 21 21 21 19 19 19 20 9 15 17 14 11 10 14 13 15 15 9 15 13 17 15 8 15 19 18 18 17
17 17 16 17 17 15 15 15 15 16 14 16 15 16 17 18 18 19 21 22 22 20 20 21 22 17 14 28 18 15 13 10 11 14 11 12 12 9 5 13 18 14 16 18 20 22 19
17 17 16 17 19 18 17 16 16 17 16 17 17 15 15 18 19 20 22 23 22 21 21 21 18 10 15 20 21 24 24 27 25 21 16 10 11 14 17 11 10 11 14 16 4 6 6
19 19 19 18 19 20 17 17 17 18 19 18 15 15 15 17 19 20 24 24 22 22 20 16 10 9 14 13 12 7 17 19 18 20 23 11 10 16 15 16 17 15 15 17 13 12 10
18 20 23 21 19 20 20 18 17 19 19 18 15 15 15 17 18 20 24 25 18 14 8 2 4 6 14 5 4 5 6 10 6 9 8 17 13 11 13 15 19 17 18 15 16 3 11
26 24 22 20 21 19 22 21 19 19 18 18 14 14 16 17 16 19 23 17 6 5 5 10 6 9 11 9 9 8 8 9 10 11 9 25 15 18 22 23 20 15 15 18 17 2 8
17 20 21 21 22 20 18 20 18 20 18 18 13 13 16 17 15 16 16 7 2 6 15 19 27 32 31 17 11 10 10 11 11 12 12 11 20 21 20 18 17 20 19 20 18 5 10
19 18 18 22 19 20 22 22 19 20 17 18 13 15 15 14 14 12 9 3 4 12 8 14 15 14 14 19 16 19 11 12 12 16 18 16 6 19 19 18 18 19 21 20 17 11 14
24 23 21 19 18 18 18 17 20 20 18 17 15 14 11 11 9 4 4 3 3 12 5 6 6 5 6 7 8 15 19 11 12 16 16 13 19 10 21 24 19 20 19 19 18 16 13
26 23 21 19 20 18 19 15 17 18 17 17 15 13 10 8 7 5 2 4 6 3 6 5 5 3 6 7 4 1 9 18 16 10 8 8 8 19 18 20 19 18 14 14 14 14 15
21 22 24 25 23 21 17 18 17 18 19 16 15 13 13 11 13 14 8 6 5 4 9 3 4 5 4 7 2 6 4 5 8 18 16 13 2 6 19 17 15 6 11 10 7 8 10
22 24 18 21 21 19 17 16 15 17 19 16 14 13 15 12 6 5 5 4 5 7 3 5 2 3 4 3 5 7 7 9 7 7 14 19 21 11 7 7 13 16 10 5 8 7 9
25 25 23 20 21 20 16 16 18 20 17 15 14 15 17 18 15 8 6 7 11 1 5 2 2 6 1 1 2 5 8 6 10 7 4 9 8 25 16 22 12 18 17 7 9 9 7
25 24 25 25 20 18 20 24 20 18 15 14 15 15 21 20 19 17 10 10 5 10 3 4 4 5 4 2 2 2 2 2 4 7 5 3 6 4 11 22 23 15 19 16 15 13 8
25 23 21 21 26 24 22 20 20 18 16 14 13 13 21 19 19 20 6 13 14 3 4 3 4 3 2 3 1 2 2 5 3 6 6 2 5 6 8 12 19 20 7 10 11 7 11
23 24 24 24 22 24 23 20 22 23 17 13 13 7 12 12 18 15 5 8 18 13 4 5 3 2 2 2 2 3 3 4 6 7 6 4 4 4 5 9 15 12 14 12 10 14 11
27 24 25 26 26 25 26 26 25 20 16 16 15 5 9 14 11 5 6 11 5 9 18 8 4 4 4 3 4 4 3 2 6 6 4 4 3 8 13 3 1 9 18 19 12 13 10
29 28 27 26 26 25 25 23 21 19 21 16 10 11 13 16 8 12 7 5 23 14 7 9 8 8 5 5 5 6 6 3 5 5 6 5 1 5 8 10 14 11 11 14 18 17 20
29 29 28 28 28 28 28 26 25 24 25 25 8 4 16 16 20 16 21 16 6 19 15 13 3 7 7 9 9 5 5 3 3 9 3 4 5 6 8 7 9 8 14 15 17 15 17
32 32 32 32 32 32 32 32 31 30 29 29 17 9 13 6 14 17 19 10 17 6 16 12 8 12 11 10 9 11 12 12 11 12 11 6 11 12 14 17 17 17 18 18 22 23 21
31 30 28 26 26 27 28 27 32 36 36 39 16 5 22 23 25 18 18 21 21 22 13 14 15 13 16 14 12 10 9 12 8 3 4 2 3 6 11 15 16 17 22 23 25 24 23
25 23 23 21 19 18 19 24 26 30 33 32 29 25 6 18 18 9 16 20 23 18 17 23 16 14 13 14 13 14 17 17 14 11 6 4 2 3 6 3 11 17 11 19 25 25 23
22 22 22 22 22 22 22 21 21 27 32 37 22 21 14 11 13 17 20 23 23 24 23 17 21 15 2 1 9 16 16 17 17 17 15 9 10 4 6 10 13 5 18 26 22 21 21
25 25 26 26 27 26 24 23 24 23 23 39 26 24 17 12 14 21 20 18 18 21 23 19 20 14 10 2 4 6 6 8 14 22 20 18 12 5 5 10 10 2 6 11 15 11 15
24 24 24 24 24 25 25 25 26 26 27 25 21 33 20 13 19 21 15 24 14 14 7 18 7 14 11 3 3 4 4 3 3 5 15 19 16 10 6 7 4 3 4 6 18 5 8
30 30 29 28 28 29 30 29 29 28 28 28 26 29 32 6 22 29 19 16 21 15 6 5 10 7 17 5 5 5 4 3 4 4 5 13 12 15 12 5 6 5 8 7 4 2 16
30 29 30 31 31 30 29 30 31 30 32 32 31 28 14 15 17 21 28 31 23 23 9 9 7 5 3 7 6 5 5 8 7 8 4 7 9 8 10 6 8 15 2 6 2 19 9
25 27 28 30 30 31 32 28 32 34 33 34 24 25 27 8 6 16 24 29 31 29 24 21 12 9 11 7 6 4 5 3 9 4 3 6 6 3 5 5 5 12 9 8 13 14 14
Wind_Direction
285 288 285 292 289 286 290 294 298 296 295 298 301 306 308 309 310 312 311 309 308 309 314 315 314 310 322 266 256 267 276 265 229 190 179 189 201 219 233 236 230 238 255 253 252 253 256
281 284 292 297 290 297 306 305 304 301 305 302 303 303 308 308 308 309 307 305 304 306 310 308 309 307 309 267 259 268 255 250 228 209 207 194 202 229 279 250 233 230 256 258 259 255 249
290 300 288 288 289 287 287 290 295 300 299 304 307 308 311 310 310 312 308 302 300 302 301 302 299 293 269 253 262 253 244 228 220 220 210 207 213 215 261 254 242 260 262 260 249 250 246
274 284 289 290 291 287 287 291 289 295 298 299 298 304 308 311 314 318 311 306 303 299 295 297 291 253 259 277 262 249 244 237 232 235 239 230 231 237 248 266 249 250 244 263 233 232 225
295 268 277 277 282 287 292 284 288 293 296 294 297 294 301 305 310 316 314 316 311 298 295 293 275 214 265 273 268 257 228 236 237 245 235 227 220 227 230 242 257 233 258 248 254 218 251
274 270 271 265 277 282 284 287 287 290 295 295 294 292 295 298 307 314 319 325 319 304 310 266 195 221 251 252 255 220 204 182 166 172 171 199 209 213 213 221 232 233 238 254 257 188 228
269 272 279 269 267 275 278 287 280 282 289 294 293 294 292 296 305 313 326 342 311 274 266 239 252 255 278 299 258 248 206 174 145 176 184 197 208 215 215 223 244 266 269 257 264 85 270
276 275 275 272 268 271 274 279 285 285 286 290 289 287 290 296 300 310 329 330 351 356 297 271 254 252 255 266 291 239 191 204 193 203 202 180 226 223 234 236 239 242 251 258 272 252 252
280 276 283 277 260 262 273 286 274 280 283 288 272 277 287 294 298 305 317 295 275 335 282 285 243 251 247 225 235 242 211 220 222 216 198 216 205 221 216 219 227 235 243 253 268 270 258
276 268 275 275 276 269 275 281 278 284 275 278 265 274 278 292 310 299 353 340 291 323 287 209 218 233 193 187 219 230 223 217 216 230 210 236 255 238 216 228 224 242 235 254 266 267 270
280 272 276 270 272 274 274 275 285 279 278 280 266 266 260 260 272 282 279 332 318 315 280 122 148 189 168 204 317 223 197 219 231 172 195 197 213 216 224 224 227 245 269 249 259 261 265
277 275 279 272 267 271 267 276 282 279 286 275 270 259 255 262 254 261 280 284 304 225 241 161 148 180 201 207 224 129 134 207 223 244 249 259 284 224 234 239 233 206 232 242 246 254 248
273 271 277 266 265 267 267 271 269 276 283 279 264 252 252 251 242 272 238 213 212 239 86 168 177 206 311 176 178 187 171 183 186 175 224 234 239 245 250 226 209 223 226 216 222 212 247
277 270 274 271 269 268 263 269 275 276 274 275 266 256 251 246 243 208 200 215 222 242 236 321 276 271 226 341 148 176 164 193 217 245 277 203 211 218 221 229 214 213 212 229 243 247 264
279 273 271 262 267 263 266 275 267 270 270 271 273 262 259 242 234 225 212 213 222 226 266 285 272 231 142 152 291 192 132 114 56 224 250 237 235 277 224 214 220 208 223 238 274 276 269
277 271 267 267 261 269 273 260 257 258 258 261 262 266 257 241 226 222 208 233 230 270 310 264 251 349 134 22 276 5 127 48 29 9 282 305 266 231 230 230 230 243 231 206 221 241 241
269 268 265 266 261 260 260 249 253 266 243 242 243 248 259 245 213 214 223 224 223 244 327 333 316 300 41 22 350 341 42 109 18 22 52 309 249 145 168 196 214 212 231 231 272 226 256
281 276 275 271 268 262 256 257 259 246 226 223 224 227 237 200 196 233 234 226 219 217 242 247 320 316 287 307 293 291 269 356 12 8 349 20 288 252 247 137 295 261 226 224 234 231 237
280 276 271 267 264 262 257 252 246 237 214 210 219 234 248 210 222 226 254 227 222 216 211 203 231 236 242 253 255 252 266 37 37 25 17 346 111 255 224 237 238 240 241 246 250 262 259
275 272 269 266 261 256 253 247 240 229 219 216 220 228 224 223 243 252 232 227 216 210 229 221 229 226 228 230 231 244 250 271 319 302 326 277 249 240 276 329 323 296 299 276 237 238 252
276 272 268 264 262 257 249 242 239 230 217 216 217 215 222 207 226 226 242 244 219 175 226 215 220 230 233 246 239 236 248 274 282 308 267 237 260 261 255 268 285 286 281 272 261 242 242
276 272 269 263 261 259 252 244 239 233 224 217 214 189 208 238 235 216 222 228 231 221 200 215 231 225 233 243 250 281 287 282 281 248 351 320 262 288 273 260 260 284 281 274 257 261 262
276 269 263 260 255 260 256 246 237 229 218 219 219 219 216 217 223 221 216 219 219 216 229 232 229 237 240 255 268 273 274 276 268 266 244 269 266 304 271 249 304 271 313 307 256 241 249
276 269 264 259 257 257 252 244 244 229 223 214 200 189 209 237 221 225 230 218 230 230 222 218 225 229 291 136 284 261 252 254 247 242 238 241 245 230 284 291 251 343 354 297 272 241 243
275 268 264 261 258 256 247 240 233 232 226 217 206 193 201 227 223 234 216 226 230 216 229 220 219 220 192 184 265 250 216 232 239 235 224 217 232 248 247 246 286 334 337 314 328 275 245
279 272 267 263 256 248 243 239 233 228 228 225 217 203 203 212 218 221 218 213 213 209 215 221 197 186 161 183 225 232 218 259 219 207 213 212 217 223 246 250 267 166 188 260 321 236 355
275 272 269 265 259 252 247 237 233 229 223 225 225 208 214 204 224 212 221 215 209 199 201 165 172 184 186 176 230 234 238 289 255 256 161 187 200 222 234 265 278 25 354 226 264 37 317
275 268 264 258 253 250 246 233 230 225 215 216 226 207 196 203 222 215 220 224 215 204 188 162 154 170 176 201 206 184 232 225 255 258 149 175 193 199 227 239 240 13 41 5 343 291 0
283 273 266 259 249 245 243 236 222 219 210 209 205 219 210 184 191 218 218 222 220 211 194 173 199 151 181 210 208 211 209 226 240 253 200 206 215 202 233 221 61 26 307 6 344 335 345